Погода в Свеце

Польша     53°24′50″N   18°26′12″E
темп.,
°C
ветер,
м/с
пор.,
м/с
влажн.,
%
обл.,
%
осадки,
мм/ч
давл.,
гПа
погр.,
м
1 марта, пн
пн101:00+1сз23940 0.0 103463
04:00+1з12940 0.0 103322
07:00+1з23960 0.0 103466
10:00+5зюз238218 0.0 1034267
13:00+8зюз46709 0.0 1034440
16:00+8зюз47750 0.0 1033447
19:00+5зюз39890 0.0 1033232
22:00+3з49920 0.0 1033255
2 марта, вт
вт201:00+2з410910 0.0 1033248
04:00+2з410920 0.0 1031247
07:00+1з411890 0.0 1032258
10:00+6зсз59690 0.0 1031431
13:00+10зсз48530 0.0 1032734
16:00+9сз36591 0.0 1031693
19:00+5ссз23810 0.0 103254
22:00+2ссв12940 0.0 103322
3 марта, ср
ср301:00+1в11960 0.0 103322
04:00+1ю11956 0.0 103122
07:00+1ююз22963 0.0 103127
10:00+5юз24740 0.0 1029341
13:00+8юз35540 0.0 1027467
16:00+9юз36590 0.0 1024360
19:00+5юз36810 0.0 1022109
22:00+4зюз410880 0.0 1019228
4 марта, чт
чт401:00+3зюз410920 0.0 1017285
04:00+3з410955 0.0 1014319
07:00+3з489442 0.0 1013488
10:00+4з4784100 0.0 1012642
13:00+4зсз4675100 0.0 1011813
16:00+3зсз4781100 0.1 1010748
19:00+1с4896100 0.3 1011480
22:000ссв5981100 0.1 1012910
5 марта, пт
пт501:00−1с388499 0.1 1014516
04:00−2с387428 0.0 1015364
07:00−2ссз247014 0.0 1017182
10:00+2сз464920 0.0 10191335
13:00+3с574357 0.4 10201820
16:00+3ссз464031 0.1 10201788
19:00−1сз236116 0.1 102277
22:00−1зсз247297 0.1 102399